Weather in Menza

Russia / Zabaykalsky Krai     49°25′47″N   108°51′27″E
temp.,
°C
wind,
m/s
gust,
m/s
humid.,
%
clouds,
%
prec.,
mm/h
press.,
hPa
HPBL,
m
6 may, thu
thu600:00−4nnw31094100 2.6 10131129
03:00−5nnw31194100 5.0 10141055
06:00−5nnw3894100 0.8 1016750
09:00−3nw3679100 0.9 1018952
12:00−1nw4577100 0.2 10181131
15:000wnw5671100 0.3 10161345
18:00+1wnw466891 0.1 10141360
21:00−4wsw119358 0.1 101610
7 may, fri
fri700:00−5wsw2292100 0.0 101552
03:00−2sw2488100 0.0 1011104
06:00−1wsw2498100 0.9 1008157
09:00+2wnw61988100 4.3 10071542
12:00+1nw71586100 0.5 10081218
15:00+3nw6117465 0.6 10091532
18:00+3nnw5872100 0.2 10091328
21:00−2nw1194100 0.3 101311
8 may, sat
sat800:00−5wnw219697 0.0 101612
03:00−7wnw119716 0.0 101710
06:00−8w119860 0.0 101711
09:00−1ssw1282100 0.0 1014243
12:00+5sw1261100 0.0 10101036
15:00+7wnw2364100 0.0 10071217
18:00+6wnw2471100 0.1 1008939
21:00+2w2395100 0.3 1011109
9 may, sun
sun900:00+1wnw278759 0.1 1013282
03:00−1wnw229594 0.1 101447
06:000wsw1296100 0.1 101461
09:00+1w1297100 0.5 1015164
12:00+5nw377486 0.5 10131166
15:00+7nw4664100 0.9 10111344
18:00+6nw356797 0.3 10101135
21:00+2w119041 0.7 101210
10 may, mon
mon1000:000sw1194100 0.0 101410
03:00−2n009799 0.0 101410
06:00−2wnw0099100 0.0 101419
09:00+2ene1188100 0.0 1013280
12:00+6ne3368100 0.0 10111013
15:00+7nne2453100 0.1 10101265
18:00+7n3661100 0.8 10101423
21:00+2nw229197 2.1 101440